"Pseudo-MPEC" for P11dCa7

Created 2021 Feb 24 8:07:14 UT using Find_Orb

Click here for an explanation of pseudo-MPECs

 
 Astrometry: 
     P11dCa7  C2021 02 22XDrjAstrometryi6f3U!HxxTaxdn3HaCN0OSIQ$0l6.?RUGedH3bF51
     P11dCa7  C2021 02 22FAIx+r1-3.\w75hmd4*s-dK16Y#BYDF1)rv7_*M\A\ccFRms_XDCF51
     P11dCa7  C2021 02 224\#7%65%?wx0\)7r$S.BTtd(YvL5?;LvR+redacted;gh0iaagqCF51
     P11dCa7 |C2021 02 23JboO;#q11kclickO9$K@nk[@AgK.U5wpveAs5)hxk50Z99e6-0q'807
     P11dCa7 |C2021 02 23Q^,`nA7d=`here6li$0hIRK4kAM0W4@Norg!25B#S_9uL)S6KjWN807
     P11dCa7 |C2021 02 23%HI,3[ASc6%P8keZo?tO2o!;Ik@%\w-;WG38hfUYF,K7K_`DY5W)807
     P11dCa7 KC2021 02 23.47224 12 49 54.39 +12 10 28.7    ~2NCM 22.0 GVNEOCP291
     P11dCa7 KC2021 02 23.48000 12 49 55.04 +12 10 38.3    ~2NCM 22.3 GVNEOCP291
     P11dCa7 KC2021 02 23.48775 12 49 55.73 +12 10 48.5    ~2NCM 21.8 GVNEOCP291
     P11dCa7 ^C2021 02 24jL,\m1rD?3DPZWB#xw\x)ai/FPSedc07oF^(E+Mue^qB6oXhR?Xa695
     P11dCa7 ^C2021 02 24f.oFMY/7J$].^Ufork^`rY0+H![iR!:@cc@kv)(!afcFuT*\L=7H695
     P11dCa7 ^C2021 02 248Hy'UT)ItF2o7.x@c``M`['Dq.agEd,explanation]f+A_!j4HV695

Station data:
(291) LPL/Spacewatch II  (N31.961669 W111.599905)  US/Arizona.  Observers J.
   V. Scotti, R. S. McMillan. 1.8-m f/2.7 reflector + CCD.
(695) Kitt Peak  (N31.958398 W111.594670)  US/Arizona.
(807) Cerro Tololo Observatory, La Serena  (S30.169136 W70.805900)  Chile.
(F51) Pan-STARRS 1, Haleakala  (N20.707235 W156.255910)  US/Hawaii.
   Observers N. Primak, A. Schultz, S. Watters, J. Thiel, T. Goggia. Measurer
   PS1 Science Consortium. 1.8-m Ritchey-Chrétien + CCD.

Orbital elements:  P11dCa7
   Perihelion 2021 Feb 10.763410 +/- 0.533896 TT = 18:19:18 (JD 2459256.263410)
Epoch 2021 Feb 24.0 TT = JDT 2459269.5   Earth MOID: 0.1836   AutoNEOCP
M   6.74998565 +/- 0.2359867        (J2000 ecliptic)
n   0.50994900 +/- 0.00455726       Peri.   18.11690 +/- 0.6020248
a   1.55161826 +/- 0.00924328       Node   131.12037 +/- 0.1456055
e   0.2468232 +/- 0.00400521        Incl.    6.03428 +/- 0.0534948
P   1.93/705.94d           H 23.9   G  0.15   U  9.1  
q 1.16864285 +/- 0.00146427    Q 1.93459367 +/- 0.0176948
From 12 observations 2021 Feb. 22-24 (41.6 hr); mean residual 0".20
Residuals in arcseconds: 
210222 F51  .11+  .34+    210223 807  .24+  .27+    210223 291  .07-  .05+    
210222 F51  .15-  .14+    210223 807  .14+  .27-    210224 695  .11+  .02-    
210222 F51  .24-  .25-    210223 291  .05+  .03-    210224 695  .07-  .10+    
210223 807  .36+  .16-    210223 291  .30-  .30-    210224 695  .18-  .15+    

Ephemerides (geocentric):
Date (UTC) HH   RA              Dec         delta   r     elong  mag " sig PA
---- -- -- --  -------------   -----------  ------ ------ -----  --- ---- ---
2021 02 24 08  12 51 20.469   +12 29 13.13  .21614 1.1735 145.1 22.1 .158 124
2021 02 24 09  12 51 24.526   +12 30 06.88  .21612 1.1736 145.2 22.1 .168 124
2021 02 24 10  12 51 28.577   +12 31 00.62  .21611 1.1736 145.2 22.1 .177 125
2021 02 24 11  12 51 32.621   +12 31 54.37  .21609 1.1736 145.2 22.1 .187 125
2021 02 24 12  12 51 36.658   +12 32 48.12  .21607 1.1737 145.2 22.1 .197 125
2021 02 24 13  12 51 40.689   +12 33 41.87  .21606 1.1737 145.2 22.1 .207 125
2021 02 24 14  12 51 44.714   +12 34 35.62  .21604 1.1737 145.3 22.1 .217 126
2021 02 24 15  12 51 48.731   +12 35 29.37  .21602 1.1738 145.3 22.1 .228 126
2021 02 24 16  12 51 52.743   +12 36 23.11  .21601 1.1738 145.3 22.1 .238 126
2021 02 24 17  12 51 56.747   +12 37 16.86  .21599 1.1738 145.3 22.1 .249 126
2021 02 24 18  12 52 00.745   +12 38 10.61  .21598 1.1738 145.3 22.1 .259 127
2021 02 24 19  12 52 04.736   +12 39 04.36  .21596 1.1739 145.4 22.1 .270 127
2021 02 24 20  12 52 08.721   +12 39 58.10  .21595 1.1739 145.4 22.1 .281 127
2021 02 24 21  12 52 12.699   +12 40 51.85  .21593 1.1739 145.4 22.1 .292 127
2021 02 24 22  12 52 16.671   +12 41 45.59  .21592 1.1740 145.4 22.1 .304 128
2021 02 24 23  12 52 20.636   +12 42 39.34  .21590 1.1740 145.4 22.1 .315 128
2021 02 25 00  12 52 24.594   +12 43 33.08  .21589 1.1740 145.5 22.1 .327 128
2021 02 25 01  12 52 28.546   +12 44 26.82  .21587 1.1741 145.5 22.1 .338 128
2021 02 25 02  12 52 32.491   +12 45 20.56  .21586 1.1741 145.5 22.1 .350 129
2021 02 25 03  12 52 36.430   +12 46 14.29  .21584 1.1741 145.5 22.1 .362 129
2021 02 25 04  12 52 40.362   +12 47 08.03  .21583 1.1742 145.5 22.1 .374 129
2021 02 25 05  12 52 44.287   +12 48 01.76  .21581 1.1742 145.6 22.1 .386 129
2021 02 25 06  12 52 48.206   +12 48 55.49  .21580 1.1742 145.6 22.1 .399 130
2021 02 25 07  12 52 52.118   +12 49 49.22  .21579 1.1743 145.6 22.1 .411 130
2021 02 25 08  12 52 56.023   +12 50 42.94  .21577 1.1743 145.6 22.1 .424 130
2021 02 25 09  12 52 59.922   +12 51 36.66  .21576 1.1743 145.6 22.1 .437 130
2021 02 25 10  12 53 03.814   +12 52 30.38  .21575 1.1744 145.7 22.1 .450 131
2021 02 25 11  12 53 07.700   +12 53 24.09  .21573 1.1744 145.7 22.1 .463 131
2021 02 25 12  12 53 11.578   +12 54 17.81  .21572 1.1744 145.7 22.1 .476 131
2021 02 25 13  12 53 15.450   +12 55 11.52  .21571 1.1744 145.7 22.1 .490 131
2021 02 25 14  12 53 19.316   +12 56 05.22  .21569 1.1745 145.7 22.1 .503 132
2021 02 25 15  12 53 23.175   +12 56 58.92  .21568 1.1745 145.7 22.1 .517 132
2021 02 25 16  12 53 27.027   +12 57 52.62  .21567 1.1745 145.8 22.1 .531 132
2021 02 25 17  12 53 30.872   +12 58 46.31  .21566 1.1746 145.8 22.1 .545 132
2021 02 25 18  12 53 34.711   +12 59 40.00  .21564 1.1746 145.8 22.1 .559 132
2021 02 25 19  12 53 38.543   +13 00 33.69  .21563 1.1746 145.8 22.1 .573 133
2021 02 25 20  12 53 42.369   +13 01 27.37  .21562 1.1747 145.8 22.1 .588 133
2021 02 25 21  12 53 46.187   +13 02 21.04  .21561 1.1747 145.9 22.1 .602 133
2021 02 25 22  12 53 49.999   +13 03 14.71  .21560 1.1747 145.9 22.1 .617 133
2021 02 25 23  12 53 53.805   +13 04 08.38  .21558 1.1748 145.9 22.1 .632 133
2021 02 26 00  12 53 57.603   +13 05 02.04  .21557 1.1748 145.9 22.1 .647 134
2021 02 26 01  12 54 01.395   +13 05 55.69  .21556 1.1748 145.9 22.1 .662 134
2021 02 26 02  12 54 05.181   +13 06 49.34  .21555 1.1749 146.0 22.1 .678 134
2021 02 26 03  12 54 08.959   +13 07 42.99  .21554 1.1749 146.0 22.1 .693 134
2021 02 26 04  12 54 12.731   +13 08 36.62  .21553 1.1749 146.0 22.1 .709 134
2021 02 26 05  12 54 16.496   +13 09 30.26  .21552 1.1750 146.0 22.1 .725 135
2021 02 26 06  12 54 20.254   +13 10 23.88  .21551 1.1750 146.0 22.1 .741 135
2021 02 26 07  12 54 24.006   +13 11 17.50  .21549 1.1750 146.1 22.1 .757 135